Regional Weather Roundup
Issued by NWS Newport/Morehead, NC

Current Version | Previous Version | Text Only | Print | Product List | Glossary On
Versions: 1 2 3 4 5 6 7 8 9 10 11 12 13 14 15 16 17 18 19 20 21 22 23 24 25 26 27 28 29 30 31 32 33 34 35 36 37 38 39 40 41 42 43 44 45 46 47 48 49 50
000
ASUS42 KMHX 182225
RWRMHX
WEATHER ROUNDUP FOR EASTERN NORTH CAROLINA
NATIONAL WEATHER SERVICE NEWPORT/MOREHEAD CITY NC
500 PM EST THU JAN 18 2018

NOTE: "FAIR" INDICATES FEW OR NO CLOUDS BELOW 12,000 FEET
WITH NO SIGNIFICANT WEATHER AND/OR OBSTRUCTIONS TO VISIBILITY

NCZ015>017-031-032-045>047-102-103-182300-
NORTH COAST

CITY           SKY/WX    TMP DP  RH WIND       PRES   REMARKS
EDENTON        FAIR      37  21  54 W13G20    30.19S
ELIZABETH CITY FAIR      34  23  64 W9        30.16R
KITTY HAWK     FAIR      33  22  66 MISG      30.14R
MANTEO         FAIR      34  18  52 W9        30.16R

$$

NCZ045>047-081-094-103-104-182300-
CENTRAL COAST

CITY           SKY/WX    TMP DP  RH WIND       PRES   REMARKS
FRISCO         FAIR      35  22  58 W9G20     30.17S

$$

NCZ095-097-098-100-101-182300-
SOUTHERN COAST

CITY           SKY/WX    TMP DP  RH WIND       PRES   REMARKS
BEAUFORT       FAIR      37  17  44 W12       30.21R
CEDAR ISLAND   NOT AVBL
JACKSONVILLE   FAIR      36  19  50 W13       30.24S
PINEY ISLAND   NOT AVBL
WILMINGTON     FAIR      38  15  39 NW13      30.26R


$$

NCZ011>013-027>030-043-044-078>080-089-090>093-098-182300-
COASTAL PLAIN

CITY           SKY/WX    TMP DP  RH WIND       PRES   REMARKS
AHOSKIE        FAIR      30  22  73 CALM      30.20S
CLINTON        FAIR      36  20  53 W3        30.26S
ELIZABETHTOWN  NOT AVBL
GOLDSBORO      FAIR      34  18  51 W10       30.23S
GREENVILLE     FAIR      34  21  60 W6        30.23F
HAVELOCK       NOT AVBL
KENANSVILLE    FAIR      34  18  51 W5        30.25S
KINSTON        NOT AVBL
NEW BERN       FAIR      35  18  49 W10       30.23R
RICHLANDS      FAIR      35  18  49 W3        30.25S
ROCKY MOUNT    NOT AVBL
WASHINGTON     FAIR      35  19  51 W7        30.22S
WHITEVILLE     FAIR      38  16  41 CALM      30.26F

$$

AMZ130-135-150-152-154-156-158-170-250-252-270-ANZ085-086-088-633-658-670-182300-
MARINE OBSERVATIONS

STATION/POSITION TIME  TEMP    WIND        PRES    WAVE   SWELL
                       AIR SEA DIR/SP/G            HT/PER HT/PER
                 (UTC) (F)     (DEG/KT/KT) (MB)    (FT/S) (FT/S)
CHESAPEAKE LIGHT NOT AVBL
64 E VA BEACH    2150   40 58  280/ 17/ 23 1019.0    7/ 6
DUCK             2200   35 38  260/ 16/ 19 1020.2
2 E DUCK         2130      40                N/A     5/ 8   2/11
OREGON INLET     2200   35 38  250/  9/ 12 1021.0
13E OREGON INLT  2148      42                N/A     7/ 8   7/ 8
HATTERAS CG      2200   36 41  280/ 19/ 20 1021.4
DIAMOND BUOY     2210   39 42  280/ 17/ 21 1021.6
CAPE LOOKOUT     2200          280/ 16/ 18 1023.0
BEAUFORT LAB     2200   38 44  270/  4/ 10 1023.0
30 SE NEW RVR IN 2208   41 58  330/ 16/ 19 1023.6
30 SE NEW RVR IN 2200      57                N/A     4/11   2/11
27 SE WRIGHTSVLE 2208   40 59  300/ 16/ 25 1024.0
5 SE WRIGHTSVLE  2208   39 46  310/ 12/ 16 1024.0
225 S CAPE HAT   2150   54 70  340/ 17/ 25 1021.3   13/10  10/10
41 SE CHARLESTON 2210   45 68  330/ 12/ 16 1025.5

$$




USA.gov is the U.S. government's official web portal to all federal, state and local government web resources and services.